Weather History for PANN - November, 2012

Change the Weather History Date:

Sunday, November 11, 2012

  Actual Average Record
Temperature  
Mean Temperature 16 °F -  
Max Temperature 41 °F 13 °F 57 °F (1996)
Min Temperature -9 °F -7 °F -18 °F (2006)
Degree Days  
Heating Degree Days 49    
Moisture  
Dew Point -2 °F    
Average Humidity 77    
Maximum Humidity 85    
Minimum Humidity 72    
Precipitation  
Precipitation 0.08 in - - ()
Sea Level Pressure  
Sea Level Pressure 29.86 in    
Wind  
Wind Speed 4 mph (NW)    
Max Wind Speed 16 mph    
Max Gust Speed -    
Visibility 10 miles    
Events Snow    
Averages and records for this station are not official NWS values.
T = Trace of Precipitation, MM = Missing Value Source: NWS Daily Summary

Daily Weather History Graph

Daily Weather History Graph

Search for Another Location

Airport or City:

Trip Planner

Search our weather history database for the weather conditions in past years. The results will help you decide how hot, cold, wet, or windy it might be!

Date:

Astronomy

Nov. 11, 2012 Rise Set
Actual Time 9:17 AM AKST 4:02 PM AKST
Civil Twilight 8:18 AM AKST 5:01 PM AKST
Nautical Twilight 7:17 AM AKST 6:02 PM AKST
Astronomical Twilight 6:20 AM AKST 6:59 PM AKST
Moon 5:58 AM AKST (11/11) 3:07 PM AKST (11/11)
Length of Visible Light 8h 43m
Length of Day
6h 44m
Waning Crescent, 6% of the Moon is Illuminated
Nov 11
Waning Crescent
Nov 13
New
Nov 20
First Quarter
Nov 28
Full
Dec 6
Last Quarter

Hourly Weather History & Observations

Time (AKST) Temp. Windchill Dew Point Humidity Pressure Visibility Wind Dir Wind Speed Gust Speed Precip Events Conditions
12:07 AM 6.8 °F -2.0 °F 3.2 °F 85% 29.71 in 10.0 mi NW 4.6 mph - N/A   Overcast
12:53 AM 7.0 °F -3.3 °F 1.9 °F 80% 29.75 in 10.0 mi NW 5.8 mph - N/A   Overcast
1:20 AM 6.8 °F -3.5 °F 1.4 °F 79% 29.72 in 10.0 mi NW 5.8 mph - N/A   Overcast
1:53 AM 7.0 °F -4.5 °F 1.9 °F 80% 29.76 in 6.0 mi NW 6.9 mph - 0.00 in Snow Light Snow
2:21 AM 6.8 °F -3.5 °F 1.4 °F 79% 29.72 in 6.0 mi NW 5.8 mph - 0.01 in Snow Light Snow
3:38 AM 5.0 °F -4.1 °F -0.4 °F 78% 29.73 in 8.0 mi NW 4.6 mph - 0.00 in Snow Light Snow
3:53 AM 5.0 °F -4.1 °F -0.0 °F 80% 29.77 in 9.0 mi NW 4.6 mph - 0.00 in   Overcast
4:23 AM 3.2 °F -6.2 °F -0.4 °F 85% 29.74 in 10.0 mi NW 4.6 mph - N/A   Overcast
4:50 AM 3.2 °F -6.2 °F -2.2 °F 78% 29.74 in 10.0 mi WNW 4.6 mph - N/A   Overcast
4:53 AM 3.9 °F -3.4 °F -2.0 °F 76% 29.78 in 10.0 mi WNW 3.5 mph - N/A   Overcast
5:15 AM 3.2 °F -7.8 °F -2.2 °F 78% 29.74 in 10.0 mi NW 5.8 mph - N/A   Overcast
5:48 AM 3.2 °F -6.2 °F -2.2 °F 78% 29.75 in 10.0 mi WNW 4.6 mph - N/A   Overcast
5:53 AM 3.0 °F -6.4 °F -2.0 °F 80% 29.79 in 10.0 mi NW 4.6 mph - N/A   Overcast
6:53 AM 3.9 °F -3.4 °F -2.0 °F 76% 29.81 in 10.0 mi NW 3.5 mph - N/A   Overcast
7:30 AM 3.2 °F -6.2 °F -2.2 °F 78% 29.77 in 10.0 mi NW 4.6 mph - N/A   Overcast
7:53 AM 3.9 °F -8.2 °F -2.9 °F 73% 29.82 in 10.0 mi NW 6.9 mph - N/A   Overcast
8:53 AM 3.9 °F -3.4 °F -2.0 °F 76% 29.84 in 10.0 mi NW 3.5 mph - N/A   Overcast
9:53 AM 3.9 °F -5.3 °F -2.9 °F 73% 29.85 in 10.0 mi NW 4.6 mph - N/A   Overcast
10:53 AM 3.0 °F -6.4 °F -2.9 °F 76% 29.87 in 10.0 mi NW 4.6 mph - N/A   Overcast
11:24 AM 3.2 °F -6.2 °F -4.0 °F 72% 29.83 in 10.0 mi NW 4.6 mph - N/A   Overcast
11:53 AM 3.0 °F -8.0 °F -4.0 °F 73% 29.89 in 10.0 mi NW 5.8 mph - N/A   Overcast
12:07 PM 3.2 °F -6.2 °F -4.0 °F 72% 29.85 in 10.0 mi NW 4.6 mph - N/A   Overcast
12:53 PM 3.9 °F -3.4 °F -2.9 °F 73% 29.91 in 10.0 mi WNW 3.5 mph - N/A   Overcast
1:53 PM 5.0 °F -2.1 °F -2.0 °F 73% 29.91 in 10.0 mi NW 3.5 mph - N/A   Overcast
2:53 PM 6.1 °F - -0.9 °F 73% 29.93 in 10.0 mi Calm Calm - N/A   Overcast
3:53 PM 7.0 °F - -0.0 °F 73% 29.94 in 10.0 mi Calm Calm - N/A   Overcast
4:53 PM 7.0 °F - -0.0 °F 73% 29.95 in 10.0 mi Calm Calm - N/A   Overcast
5:53 PM 5.0 °F -2.1 °F -0.9 °F 76% 29.96 in 10.0 mi NW 3.5 mph - N/A   Scattered Clouds
6:53 PM 1.9 °F -7.6 °F -2.9 °F 80% 29.98 in 10.0 mi NW 4.6 mph - N/A   Partly Cloudy
7:53 PM -4.0 °F - -8.0 °F 83% 29.99 in 10.0 mi Calm Calm - N/A   Clear
8:53 PM -8.0 °F - -13.0 °F 79% 30.01 in 10.0 mi Calm Calm - N/A   Clear
9:19 PM -7.6 °F - -11.2 °F 84% 29.97 in 10.0 mi Calm Calm - N/A   Mostly Cloudy
9:48 PM -7.6 °F - -11.2 °F 84% 29.98 in 10.0 mi Calm Calm - N/A   Scattered Clouds
9:53 PM -8.0 °F - -13.0 °F 79% 30.03 in 10.0 mi Calm Calm - N/A   Partly Cloudy
10:53 PM -9.0 °F - -15.0 °F 75% 30.04 in 7.0 mi Calm Calm - N/A   Clear
11:53 PM -9.0 °F - -15.0 °F 75% 30.06 in 10.0 mi Calm Calm - N/A   Overcast